Hourly Data Report for October 04, 2013

All times are specified in Local Standard Time (LST). Add 1 hour to adjust for Daylight Saving Time where and when it is observed.

TORONTO INTL A
ONTARIO

43°40'36.000" N
79°37'50.000" W
173.40 m
6158731
71624
YYZ

Download Data

Hourly Data (October 2013)
Hourly Data Report for October 4, 2013
Temp Definition
°C
Dew Point Temp Definition
°C
Rel Hum Definition
%
Wind Dir Definition
10's deg

Wind Spd Definition
km/h
Visibility Definition
km
Stn Press Definition
kPa
Hmdx Definition


Wind Chill Definition


Weather Definition


TIME
00:00 Legend Double Dagger 16.8 13.4 80 15 8 24.1 99.54     Rain Showers
01:00 Legend Double Dagger 16.0 14.0 88 8 5 19.3 99.53     Rain Showers
02:00 Legend Double Dagger 15.7 14.4 92 9 5 24.1 99.52     Rain Showers
03:00 Legend Double Dagger 15.6 14.5 93 13 4 19.3 99.50     Rain Showers
04:00 Legend Double Dagger 15.6 14.7 94 10 5 9.7 99.47     Rain Showers,Fog
05:00 Legend Double Dagger 15.7 14.9 95 12 4 6.4 99.49     Fog
06:00 Legend Double Dagger 15.7 15.1 96 26 2 4.8 99.55     Rain Showers,Fog
07:00 Legend Double Dagger 15.8 15.0 95 11 10 6.4 99.51     Rain Showers,Fog
08:00 Legend Double Dagger 16.1 15.2 94 8 3 4.8 99.62     Rain,Fog
09:00 Legend Double Dagger 16.6 15.6 94 9 9 6.4 99.62     Fog
10:00 Legend Double Dagger 16.4 LegendMM LegendMM 10 18 8.1 99.62     Fog
11:00 Legend Double Dagger 15.9 14.8 93 10 16 8.1 99.63     Fog
12:00 Legend Double Dagger 16.1 LegendMM LegendMM 9 13 6.4 99.63     Rain,Fog
13:00 Legend Double Dagger 15.6 14.2 91 10 13 9.7 99.61     Fog
14:00 Legend Double Dagger 15.5 14.1 91 10 10 9.7 99.62     Drizzle,Fog
15:00 Legend Double Dagger 15.6 13.5 87 9 11 19.3 99.63     LegendNANA
16:00 Legend Double Dagger 15.9 13.1 83 8 9 24.1 99.62     Cloudy
17:00 Legend Double Dagger 16.0 13.3 84 9 9 24.1 99.65     LegendNANA
18:00 Legend Double Dagger 15.6 12.9 84 8 9 9.7 99.69     Fog
19:00 Legend Double Dagger 15.7 12.9 83 8 9 16.1 99.73     Cloudy
20:00 Legend Double Dagger 15.8 13.0 83 36 8 16.1 99.81     LegendNANA
21:00 Legend Double Dagger 15.9 12.9 82 9 12 16.1 99.79     LegendNANA
22:00 Legend Double Dagger 15.8 13.1 84 8 10 16.1 99.79     Cloudy
23:00 Legend Double Dagger 15.5 13.0 85 9 9 16.1 99.79     LegendNANA

Notes on Data Quality.

Legend

  • E = Estimated
  • M = Missing
  • NA = Not Available
  • ‡ = Partner data that is not subject to review by the National Climate Archives
Date modified: